Prudenville, MI

4:48 PM EST on February 25, 2017 (GMT -0500)
Roscommon County

Weather History for KHTL - February, 2013

Change the Weather History Date:

Friday, February 15, 2013

  Actual Average Record
Temperature  
Mean Temperature 18 °F 20 °F  
Max Temperature 24 °F 29 °F 51 °F (1954)
Min Temperature 11 °F 10 °F -29 °F (1943)
Degree Days  
Heating Degree Days 47 45  
Month to date heating degree days 707 695  
Since 1 July heating degree days 4826 5307  
Moisture  
Dew Point 14 °F    
Average Humidity 72    
Maximum Humidity 81    
Minimum Humidity 62    
Precipitation  
Precipitation 0.03 in 0.04 in 0.31 in (1990)
Month to date precipitation 1.11 0.58  
Year to date precipitation 4.67 2.09  
Snow  
Snow 0.40 in 0.40 in 6.00 in (1992)
Month to date snowfall 12.6 7.0  
Since 1 July snowfall 45.7 49.1  
Snow Depth 10.00 in    
Sea Level Pressure  
Sea Level Pressure 29.98 in    
Wind  
Wind Speed 9 mph (WNW)    
Max Wind Speed 21 mph    
Max Gust Speed 26 mph    
Visibility 6 miles    
Events Snow    
T = Trace of Precipitation, MM = Missing Value Source: NWS Daily Summary

Daily Weather History Graph

Daily Weather History Graph

Search for Another Location

Airport or City:

Trip Planner

Search our weather history database for the weather conditions in past years. The results will help you decide how hot, cold, wet, or windy it might be!

Date:

Astronomy

Feb. 15, 2013 Rise Set
Actual Time 7:38 AM EST 6:08 PM EST
Civil Twilight 7:08 AM EST 6:37 PM EST
Nautical Twilight 6:34 AM EST 7:11 PM EST
Astronomical Twilight 6:00 AM EST 7:45 PM EST
Moon 9:58 AM EST (2/15) No Moon Set
Length of Visible Light 11h 29m
Length of Day
10h 30m
Waxing Crescent, 30% of the Moon is Illuminated
Feb 15
Waxing Crescent
Feb 17
First Quarter
Feb 25
Full
Mar 4
Last Quarter
Mar 11
New

Hourly Weather History & Observations

Time (EST) Temp. Windchill Dew Point Humidity Pressure Visibility Wind Dir Wind Speed Gust Speed Precip Events Conditions
12:21 AM 23.0 °F 9.6 °F 17.6 °F 80% 29.80 in 10.0 mi NW 16.1 mph 24.2 mph N/A   Overcast
12:31 AM 23.0 °F 11.1 °F 17.6 °F 80% 29.81 in 10.0 mi NW 12.7 mph - N/A   Overcast
12:53 AM 23.0 °F 10.1 °F 18.0 °F 81% 29.86 in 10.0 mi WNW 15.0 mph - N/A   Overcast
1:53 AM 21.9 °F 9.8 °F 17.1 °F 82% 29.87 in 9.0 mi WNW 12.7 mph - 0.00 in Snow Light Snow
2:21 AM 21.2 °F 9.5 °F 15.8 °F 80% 29.83 in 10.0 mi WNW 11.5 mph - 0.00 in   Overcast
2:53 AM 21.9 °F 11.0 °F 16.0 °F 78% 29.89 in 10.0 mi WNW 10.4 mph - 0.00 in   Overcast
3:17 AM 21.2 °F 10.1 °F 17.6 °F 86% 29.85 in 8.0 mi West 10.4 mph - 0.00 in Snow Light Snow
3:53 AM 21.0 °F 8.6 °F 16.0 °F 81% 29.90 in 8.0 mi West 12.7 mph - 0.00 in Snow Light Snow
4:17 AM 21.2 °F 8.9 °F 15.8 °F 80% 29.86 in 10.0 mi West 12.7 mph 19.6 mph 0.00 in   Overcast
4:53 AM 19.9 °F 7.9 °F 16.0 °F 85% 29.91 in 10.0 mi West 11.5 mph - 0.00 in   Overcast
5:02 AM 19.4 °F 7.2 °F 15.8 °F 86% 29.87 in 10.0 mi WNW 11.5 mph 19.6 mph N/A   Overcast
5:18 AM 19.4 °F 6.0 °F 15.8 °F 86% 29.88 in 1.8 mi WNW 13.8 mph - 0.00 in Snow Light Snow
5:20 AM 19.4 °F 7.2 °F 15.8 °F 86% 29.88 in 1.2 mi WNW 11.5 mph - 0.00 in Snow Light Snow
5:22 AM 19.4 °F 6.6 °F 15.8 °F 86% 29.88 in 0.8 mi WNW 12.7 mph - 0.00 in Snow Light Snow
5:36 AM 19.4 °F 6.0 °F 15.8 °F 86% 29.88 in 1.2 mi NW 13.8 mph - 0.02 in Snow Light Snow
5:43 AM 19.4 °F 9.5 °F 15.8 °F 86% 29.89 in 1.8 mi NW 8.1 mph - 0.02 in Snow Light Snow
5:50 AM 19.4 °F 10.4 °F 15.8 °F 86% 29.89 in 1.2 mi NW 6.9 mph - 0.02 in Snow Light Snow
5:53 AM 19.9 °F 9.3 °F 16.0 °F 85% 29.94 in 1.2 mi NW 9.2 mph - 0.02 in Snow Light Snow
5:56 AM 19.4 °F 10.4 °F 15.8 °F 86% 29.90 in 1.8 mi NW 6.9 mph - 0.00 in Snow Light Snow
6:01 AM 19.4 °F 11.5 °F 15.8 °F 86% 29.90 in 3.0 mi NW 5.8 mph - 0.00 in Snow Light Snow
6:13 AM 19.4 °F 11.5 °F 15.8 °F 86% 29.91 in 3.0 mi NW 5.8 mph - 0.00 in Snow Light Snow
6:26 AM 19.4 °F 10.4 °F 14.0 °F 80% 29.91 in 8.0 mi WNW 6.9 mph - 0.00 in Snow Light Snow
6:53 AM 19.0 °F 7.5 °F 12.0 °F 74% 29.97 in 10.0 mi NW 10.4 mph - 0.00 in   Overcast
7:53 AM 18.0 °F 8.7 °F 12.0 °F 78% 30.00 in 10.0 mi NW 6.9 mph - 0.00 in   Overcast
8:53 AM 19.0 °F 12.3 °F 12.9 °F 77% 30.02 in 10.0 mi NW 4.6 mph - 0.00 in   Overcast
9:53 AM 19.0 °F 9.0 °F 10.9 °F 71% 30.05 in 10.0 mi NW 8.1 mph - N/A   Overcast
10:22 AM 19.4 °F 11.5 °F 12.2 °F 74% 30.00 in 10.0 mi West 5.8 mph - N/A   Overcast
10:53 AM 21.0 °F 8.1 °F 12.0 °F 68% 30.06 in 6.0 mi NW 13.8 mph 19.6 mph 0.00 in Snow Light Snow
11:02 AM 21.2 °F 11.7 °F 12.2 °F 68% 30.00 in 7.0 mi WNW 8.1 mph - 0.00 in Snow Light Snow
11:35 AM 21.2 °F 10.9 °F 14.0 °F 74% 30.00 in 6.0 mi NW 9.2 mph - 0.00 in Snow Light Snow
11:53 AM 21.9 °F 9.8 °F 12.9 °F 68% 30.07 in 8.0 mi WNW 12.7 mph 19.6 mph 0.00 in Snow Light Snow
12:07 PM 21.2 °F 10.9 °F 10.4 °F 63% 30.01 in 10.0 mi WNW 9.2 mph - 0.00 in   Overcast
12:25 PM 21.2 °F 10.9 °F 12.2 °F 68% 30.01 in 10.0 mi NW 9.2 mph - 0.00 in   Overcast
12:53 PM 21.9 °F 11.7 °F 15.1 °F 75% 30.06 in 8.0 mi West 9.2 mph - 0.00 in Snow Light Snow
1:11 PM 21.2 °F 8.3 °F 14.0 °F 74% 30.01 in 2.0 mi WNW 13.8 mph 19.6 mph 0.00 in Snow Light Snow
1:15 PM 21.2 °F 7.8 °F 15.8 °F 80% 30.01 in 1.0 mi WNW 15.0 mph - 0.00 in Snow Light Snow
1:23 PM 21.2 °F 9.5 °F 15.8 °F 80% 30.01 in 1.8 mi West 11.5 mph - 0.00 in Snow Light Snow
1:26 PM 21.2 °F 8.3 °F 15.8 °F 80% 30.01 in 3.0 mi West 13.8 mph - 0.00 in Snow Light Snow
1:38 PM 23.0 °F 11.7 °F 14.0 °F 68% 30.00 in 8.0 mi WNW 11.5 mph - 0.00 in Snow Light Snow
1:44 PM 21.2 °F 10.1 °F 14.0 °F 74% 30.00 in 2.0 mi WNW 10.4 mph - 0.00 in Snow Light Snow
1:47 PM 21.2 °F 10.1 °F 14.0 °F 74% 30.00 in 1.5 mi WNW 10.4 mph - 0.00 in Snow Light Snow
1:51 PM 21.2 °F 10.1 °F 12.2 °F 68% 30.00 in 2.0 mi WNW 10.4 mph - 0.00 in Snow Light Snow
1:53 PM 21.9 °F 10.4 °F 12.9 °F 68% 30.06 in 3.0 mi West 11.5 mph - 0.00 in Snow Light Snow
2:53 PM 21.9 °F 11.0 °F 10.0 °F 60% 30.06 in 9.0 mi West 10.4 mph - 0.00 in   Overcast
3:53 PM 21.9 °F 11.7 °F 10.9 °F 63% 30.07 in 10.0 mi WNW 9.2 mph - 0.00 in   Overcast
4:53 PM 21.0 °F 9.9 °F 10.9 °F 65% 30.09 in 10.0 mi WNW 10.4 mph - 0.00 in   Overcast
5:53 PM 19.0 °F 6.8 °F 12.0 °F 74% 30.11 in 1.5 mi West 11.5 mph 17.3 mph 0.00 in Snow Light Snow
5:57 PM 19.4 °F 7.2 °F 12.2 °F 74% 30.05 in 0.8 mi West 11.5 mph 17.3 mph 0.00 in Snow Light Snow
6:06 PM 19.4 °F 9.5 °F 12.2 °F 74% 30.05 in 1.2 mi West 8.1 mph - 0.00 in Snow Light Snow
6:09 PM 19.4 °F 8.6 °F 12.2 °F 74% 30.05 in 2.0 mi West 9.2 mph - 0.00 in Snow Light Snow
6:16 PM 19.4 °F 8.6 °F 12.2 °F 74% 30.05 in 5.0 mi West 9.2 mph - 0.01 in Snow Light Snow
6:53 PM 19.0 °F 10.0 °F 12.0 °F 74% 30.12 in 10.0 mi WNW 6.9 mph - 0.01 in   Overcast
7:53 PM 18.0 °F 8.7 °F 12.0 °F 78% 30.13 in 3.0 mi WNW 6.9 mph - 0.00 in Snow Light Snow
8:53 PM 17.1 °F 8.7 °F 10.9 °F 77% 30.13 in 10.0 mi WNW 5.8 mph - 0.00 in   Overcast
9:53 PM 16.0 °F 10.4 °F 10.9 °F 81% 30.13 in 10.0 mi West 3.5 mph - N/A   Overcast
10:53 PM 16.0 °F - 10.9 °F 81% 30.12 in 10.0 mi Calm Calm - N/A   Overcast
11:53 PM 12.0 °F 5.9 °F 8.1 °F 84% 30.09 in 10.0 mi SW 3.5 mph - N/A   Mostly Cloudy